Showing default

ICEYE-X37, 59102

Orbit data source: Space-Track

ICEYE-X37, 59102 is a payload satellite owned by ICEYE US (US) in SSO that was launched on Mon, 04 Mar 2024 UTC via an FALCON 9 launch vehicle from the Air Force Western Test Range (AFWTR). Payload-class satellites include a variety of spacecraft equipped with specific instruments for various scientific and technological missions. These include communications satellites like Starlink; space stations such as the ISS; scientific satellites like the Hubble; Earth observation satellites from companies like Planet Labs, Umbra, and HawkEye 360; GPS; miniature CubeSats for education and research; and military/defense satellites.

Loading next visibility...
Identifier
59102, 2024-043E
Orbit
SSO
Country
Flag of USUS
Related business
Manufacturer
ICEYE US
Mission
Operational Commercial Radar Imaging
Bus & Motor
ICEYE, Unknown motor
Mass
90 kg wet, 89 kg dry
Launch date (UTC)
2024-03-04 (3 years ago)
Launch vehicle
FALCON 9
Launch site
Air Force Western Test Range (AFWTR)
Object type
Payload
Rocket body
Debris
Shape & HBR
Box + 1 Pan, 1.6 m
Radar Cross Section
0.825 m², Medium (>0.1 m² and < 1m²)

Expand to show TLE details & history
Last TLE update: 9 hours ago

TLE from 9 hours ago
0 ICEYE-X37
1 59102U 24043E   26255.33005509  .00003057  00000-0  20978-3 0  9999
2 59102  97.8434  33.7946 0016362  75.7301 284.5742 15.06679303138203
Epoch: 2026-09-12T07:55Z
TLE epoch observation values (Epoch: 2026-09-12T07:55:16.759Z)
Latitude
0.00001°
Longitude
-76.36584°
Altitude
546.581 km
Speed
7.59 km/s
True Right ascension
02h 15m 10s
True Declination
0° 00' 00"
Sunlit
Object was in full shadow at epoch
Visualization orbit readout
Latitude
Unknown
Longitude
Unknown
Altitude
Unknown
Speed
Unknown
Apparent Right ascension
Unknown
Apparent Declination
Unknown
Sunlit
N/A
Visualization observer readout
Local Sidereal Time
09:07:50
Azimuth
Unknown
Elevation
Unknown
Doppler factor
Unknown
Orbital elements
Apogee altitude
554.683 km
Perigee altitude
532.033 km
Semi-major axis
6,921.495 km
Eccentricity
0.00164
Inclination
97.8434°
RAAN
33.7946°
Arg. of periapsis
75.7301°
True anomaly
284.39265°
Mean anomaly
284.5742°
Eccentric anomaly
284.48343°
Mean motion
3.76915 °/min
Orbital period
95.51 mins
BSTAR
0.00020978
Loading maneuver chart data...
Computing Atmospheric mass density...
Loading historical data...
Loading historical data...
Loading historical data...
Loading historical data...
Loading historical data...
Loading historical data...
Loading historical data...

Documentation

Showing up to 5 results
|